Location: Miles
(41.4492°N, 81.6087°W)
Time: 02:39:23
(UTC+00:00)

S-56A Canister/Altair - Pass Details

Date: 20 September 2024
Orbit: 636 x 2487 km, 38.9° (Epoch: 11 October)

Event Time Altitude Azimuth Distance (km) Brightness Sun altitude
Rises 01:08:47 0° 269° (W) 3,249 12.0 -19.4°
Reaches altitude 10° 01:10:54 10° 267° (W) 2,460 11.1 -19.8°
Maximum altitude 01:16:39 71° 184° (S) 1,130 8.2 -20.8°
Enters shadow 01:20:09 35° 110° (ESE) 1,883 8.9 -21.4°
